Miscellaneous Local Product
Issued by NWS North Platte, NE

Home | Current Version | Previous Version | Text Only | Print | Product List | Glossary On
Versions: 1 2 3 4 5 6 7 8 9 10 11 12 13 14 15 16 17 18 19 20 21 22 23 24 25 26 27 28 29 30 31 32 33 34 35 36 37 38 39 40 41 42 43 44 45 46 47 48 49 50
000
AXUS43 KLBF 281110
MISLBF


WESTERN AND NORTH CENTRAL NEBRASKA HOURLY WEATHER ROUNDUP
NATIONAL WEATHER SERVICE NORTH PLATTE NE
600 AM CDT THU MAY 28 2015

***STATIONS NOT REPORTING VARIABLES SUCH AS SKY/WEATHER OR
PRESSURE ARE PROVIDED BY THE NEBRASKA DEPARTMENT OF
ROADS...RAWS...AND APRS NETWORKS...AND ARE NOT UNDER
NATIONAL WEATHER SERVICE QUALITY CONTROL***

...OBSERVATIONS IN AND NEAR THE EASTERN PANHANDLE OF NEBRASKA...

CITY           SKY/WX    TMP DP  RH WIND       PRES   REMARKS
PINE RIDGE     MOCLDY    59  50  72 W6        29.95S
CHADRON        MOCLDY    56  51  84 SW6       29.95R
ALLIANCE       PTCLDY    50  49  96 W10       29.98R
SIDNEY         PTCLDY    53  52  96 S8        30.02S
WHITECLAY        N/A     57  51  79 CALM        N/A
BIG SPRINGS      N/A     55  53  95 S7          N/A
$$

...OBSERVATIONS IN NORTH CENTRAL NEBRASKA...

CITY           SKY/WX    TMP DP  RH WIND       PRES   REMARKS
VALENTINE      MOCLDY    56  53  90 SE8       29.98R
THEDFORD       CLEAR     55  54  97 SE5       30.02R
AINSWORTH      PTCLDY    57  56  98 S8        30.01R
O`NEILL        PTCLDY    61  58  88 S7        30.02R
ORD            MOCLDY    57  55  93 CALM      30.02R
BROKEN BOW     PTCLDY    55  54  96 CALM      30.03R FOG
BROWNLEE         N/A     58  57  94 SE12        N/A
VALENTINE NWR    N/A     54  54  99 S8          N/A
SPRINGVIEW       N/A     57  55  92 CALM        N/A
HALSEY           N/A     56  56 100 S5          N/A
BREWSTER         N/A     57  56  99 CALM        N/A
ROSE             N/A     58  58  99 E8          N/A
NEWPORT          N/A     60  59  96 S7          N/A
SARGENT          N/A     57  56  97 CALM        N/A
COMSTOCK         N/A     61  61  99 S5          N/A
EWING            N/A     63  57  80 S3          N/A
$$

...OBSERVATIONS IN SOUTHWEST NEBRASKA AND FAR NORTHEAST COLORADO...

CITY           SKY/WX    TMP DP  RH WIND       PRES   REMARKS
WRAY           CLOUDY   N/A N/A N/A NW3       30.04R
HOLYOKE        FAIR      54  52  94 S5        30.03S
IMPERIAL       MOCLDY    52  50  93 E6        30.03S
OGALLALA       PTCLDY    55  54  95 CALM      30.00F
NORTH PLATTE   FOG       53  53 100 E5        30.03F VSB 1/2
MCCOOK         CLOUDY    54  52  93 E5        30.02S
LEXINGTON      FOG       56  55  96 CALM      30.04R VSB 1/4
PAXTON           N/A     53  51  94 CALM        N/A
GOTHENBURG       N/A     57  54  90 CALM        N/A
CALLAWAY         N/A     57  56  98 S5          N/A
$$

...NORTH PLATTE AREA...

CITY           SKY/WX    TMP DP  RH WIND       PRES   REMARKS
AIRPORT        FOG       53  53 100 E5        30.03F VSB 1/2
DOWNTOWN         N/A     54  52  93 E3          N/A
$$

...SOME WEATHER OBSERVATIONS FROM AROUND THE REGION...

CITY           SKY/WX    TMP DP  RH WIND       PRES   REMARKS
DENVER         FOG       55  53  93 W10       30.08R VSB 1
LARAMIE        MOCLDY    45  38  76 SW13      30.12F
CHEYENNE       CLOUDY    48  46  93 CALM      30.09R
SCOTTSBLUFF    MOCLDY    53  51  93 CALM      30.00S
RAPID CITY     CLOUDY    57  54  89 NE10      29.91F
PIERRE         PTCLDY    57  54  89 SE9       29.89S
WINNER         FAIR      64  56  75 S16       29.95R
SIOUX FALLS    CLOUDY    66  51  58 S10       30.02S
OMAHA          CLOUDY    63  54  72 SE3       30.05R
GRAND ISLAND   CLOUDY    60  57  89 S8        30.04R
KANSAS CITY    CLOUDY    65  56  72 SE9       30.08R
WICHITA        CLOUDY    64  61  90 SE3       30.01S
HAYS           CLOUDY    57  50  77 E5        30.01S
LIBERAL        CLOUDY    63  52  67 E12       30.04F
GOODLAND       CLOUDY    56  55  97 SW10      30.02S
$$



USA.gov is the U.S. government's official web portal to all federal, state and local government web resources and services.